STARLINK-30089, 56296

Orbit data source: Space-Track

STARLINK-30089, 56296 is a payload satellite owned by SpaceX/Seattle (US) in LEO that was launched on Wed, 19 Apr 2023 UTC via an FALCON 9 launch vehicle from the Air Force Eastern Test Range (AFETR). Payload-class satellites include a variety of spacecraft equipped with specific instruments for various scientific and technological missions. These include communications satellites like Starlink; space stations such as the ISS; scientific satellites like the Hubble; Earth observation satellites from companies like Planet Labs, Umbra, and HawkEye 360; GPS; miniature CubeSats for education and research; and military/defense satellites.

Loading next visibility...
Identifier
56296, 2023-056L
Orbit
LEO
Country
Flag of USUS
Related business
Manufacturer
SpaceX/Seattle
Mission
Operational Commercial Communications
Bus & Motor
STARLINK V2M, Unknown motor
Mass
730 kg wet, ~700 kg dry
Launch date (UTC)
2023-04-19 (3 years ago)
Launch vehicle
FALCON 9
Launch site
Air Force Eastern Test Range (AFETR)
Object type
Payload
Rocket body
Debris
Shape & HBR
Box + 2 Pan, 17.7 m
Radar Cross Section
33.884 m², Large (>1 m²)

Expand to show TLE details & history
Last TLE update: 21 hours ago

TLE from 21 hours ago
0 STARLINK-30089
1 56296U 23056L   25348.81974329  .00003217  00000-0  25297-3 0  9990
2 56296  43.0023 272.5458 0001752 258.5986 101.4660 15.02562036147700
Epoch: 2025-12-14T19:40Z
TLE epoch observation values (Epoch: 2025-12-14T19:40:25.820Z)
Latitude
0.00002°
Longitude
-106.28895°
Altitude
559.019 km
Speed
7.584 km/s
True Right ascension
18h 10m 10s
True Declination
0° 00' 00"
Sunlit
Object was in daylight at epoch
Visualization orbit readout
Latitude
Unknown
Longitude
Unknown
Altitude
Unknown
Speed
Unknown
Apparent Right ascension
Unknown
Apparent Declination
Unknown
Sunlit
N/A
Visualization observer readout
Local Sidereal Time
15:12:31
Azimuth
Unknown
Elevation
Unknown
Doppler factor
Unknown
Orbital elements
Apogee altitude
562.139 km
Perigee altitude
559.707 km
Semi-major axis
6,939.06 km
Eccentricity
0.00018
Inclination
43.0023°
RAAN
272.5458°
Arg. of periapsis
258.5986°
True anomaly
101.48567°
Mean anomaly
101.466°
Eccentric anomaly
101.47584°
Mean motion
3.75485 °/min
Orbital period
95.88 mins
BSTAR
0.00025297
Loading maneuver chart data...
Computing Atmospheric mass density...
Loading historical data...
Loading historical data...
Loading historical data...
Loading historical data...
Loading historical data...
Loading historical data...
Loading historical data...

Documentation

Showing up to 5 results
|